N371BC ESSD-ESMS

Flight info

Callsign N371BC
Flight time N/A
Altitude 36000
Route NEWKI DCT RASMU
Aircraft B738/M-SDE2E3FGHIRWXY/LB1

Departure

Time N/A
Airport Dala Airport (ESSD)

Arrival

Time 2026-04-25 15:29
Airport Malmö Sturup Airport (ESMS)
Time Latitude Longitude Altitude Speed Heading
2026-04-25 15:15 55.76354 13.56532 9755 ft 289 kts 190°
2026-04-25 15:15 55.75999 13.56530 9309 ft 290 kts 185°
2026-04-25 15:15 55.73972 13.56522 9416 ft 291 kts 189°
2026-04-25 15:16 55.71948 13.56519 9114 ft 291 kts 189°
2026-04-25 15:16 55.69928 13.56518 8805 ft 290 kts 189°
2026-04-25 15:16 55.65926 13.56516 8252 ft 286 kts 188°
2026-04-25 15:17 55.61963 13.56512 7697 ft 283 kts 188°
2026-04-25 15:17 55.60002 13.56510 7418 ft 281 kts 188°
2026-04-25 15:17 55.58054 13.56508 7166 ft 279 kts 188°
2026-04-25 15:18 55.56117 13.56506 6881 ft 277 kts 188°
2026-04-25 15:18 55.52277 13.56629 6432 ft 277 kts 185°
2026-04-25 15:18 55.50343 13.56760 6206 ft 279 kts 185°
2026-04-25 15:19 55.48402 13.56892 5963 ft 279 kts 185°
2026-04-25 15:19 55.47772 13.56935 5882 ft 278 kts 185°
2026-04-25 15:19 55.44586 13.57146 5489 ft 274 kts 185°
2026-04-25 15:19 55.42667 13.57267 5251 ft 272 kts 186°
2026-04-25 15:20 55.40788 13.57383 5035 ft 269 kts 186°
2026-04-25 15:20 55.38946 13.57499 4970 ft 265 kts 186°
2026-04-25 15:20 55.37104 13.57611 4754 ft 261 kts 186°
2026-04-25 15:20 55.35393 13.57488 4531 ft 235 kts 205°
2026-04-25 15:21 55.34112 13.56195 4406 ft 197 kts 232°
2026-04-25 15:21 55.33272 13.54509 4232 ft 171 kts 250°
2026-04-25 15:21 55.32748 13.52713 4126 ft 166 kts 253°
2026-04-25 15:21 55.32225 13.50904 3985 ft 166 kts 253°
2026-04-25 15:22 55.31755 13.49092 3831 ft 158 kts 265°
2026-04-25 15:22 55.31897 13.47303 3717 ft 146 kts 292°
2026-04-25 15:22 55.32465 13.45851 3586 ft 147 kts 316°
2026-04-25 15:22 55.33286 13.44785 3488 ft 146 kts 316°
2026-04-25 15:23 55.34091 13.43701 3348 ft 145 kts 316°
2026-04-25 15:23 55.34894 13.42633 3230 ft 144 kts 316°
2026-04-25 15:23 55.35734 13.41624 3107 ft 152 kts 329°
2026-04-25 15:23 55.36818 13.41254 2988 ft 161 kts 340°
2026-04-25 15:24 55.37919 13.40893 2839 ft 161 kts 339°
2026-04-25 15:24 55.39021 13.40624 2690 ft 156 kts 341°
2026-04-25 15:24 55.40066 13.40409 2530 ft 145 kts 342°
2026-04-25 15:24 55.40398 13.40342 2501 ft 139 kts 342°
2026-04-25 15:25 55.41830 13.40052 2335 ft 112 kts 340°
2026-04-25 15:25 55.42570 13.39898 2185 ft 104 kts 339°
2026-04-25 15:25 55.43291 13.39745 2056 ft 105 kts 340°
2026-04-25 15:25 55.44014 13.39600 1907 ft 103 kts 340°
2026-04-25 15:26 55.44725 13.39451 1779 ft 104 kts 340°
2026-04-25 15:26 55.45447 13.39301 1643 ft 105 kts 340°
2026-04-25 15:26 55.46162 13.39140 1501 ft 102 kts 336°
2026-04-25 15:26 55.46889 13.38986 1361 ft 110 kts 345°
2026-04-25 15:27 55.47652 13.38924 1213 ft 110 kts 344°
2026-04-25 15:27 55.48390 13.38803 1100 ft 107 kts 338°
2026-04-25 15:27 55.49878 13.38492 833 ft 108 kts 339°
2026-04-25 15:28 55.50619 13.38274 664 ft 108 kts 339°
2026-04-25 15:28 55.51365 13.38146 514 ft 107 kts 341°
2026-04-25 15:28 55.52095 13.37953 324 ft 109 kts 342°
2026-04-25 15:28 55.52858 13.37780 239 ft 105 kts 349°
2026-04-25 15:29 55.53464 13.37645 237 ft 71 kts 354°
2026-04-25 15:29 55.53891 13.37569 239 ft 56 kts 354°
2026-04-25 15:29 55.54184 13.37508 238 ft 23 kts 352°
2026-04-25 15:29 55.54221 13.37386 238 ft 12 kts 263°
2026-04-25 15:30 55.54210 13.37225 231 ft 13 kts 264°
2026-04-25 15:30 55.54186 13.37071 231 ft 14 kts 249°
2026-04-25 15:30 55.54170 13.36889 230 ft 16 kts 262°
2026-04-25 15:30 55.54168 13.36798 230 ft 5 kts 294°
2026-04-25 15:31 55.54203 13.36774 230 ft 6 kts 354°
2026-04-25 15:31 55.54229 13.36769 232 ft 0 kts 353°